#timestamp,LO_Frequency,Hit,StdDev 
1599382815.3,286047000.5,N
1599382835.1,286047002.3,N
1599382855.9,286047001.6,N
1599382875.7,286047000.6,N
1599382895.5,286047002.6,N
1599382915.4,286047001.4,N
1599382935.2,286047001.7,N
1599382955.0,286047001.5,N
1599382955.9,286047001.5,N
1599382975.8,286047002.2,N
1599382995.6,286046999.8,N
1599383015.5,286047002.2,N
1599383035.3,286047001.8,N
1599383055.1,286047002.0,N
1599383075.9,286047002.2,N
1599383095.7,286046999.7,N
1599383115.6,286046999.8,N
1599383135.4,286047002.3,N
1599383155.2,286047000.0,N
1599383175.1,286047000.3,N
1599383176.0,286047000.3,N
1599383195.8,286046999.8,N
1599383215.6,286046998.2,N
1599383235.5,286046998.7,N
1599383255.3,286046996.5,N
1599383275.2,286046997.8,N
1599383295.9,286046997.9,N
1599383315.7,286046998.1,N
1599383335.6,286046996.6,N
1599383355.4,286046996.9,N
1599383375.2,286046998.9,N
1599383395.1,286047002.7,N
1599383396.0,286047002.7,N
1599383415.8,286047002.6,N
1599383435.7,286047000.6,N
1599383455.5,286047000.5,N
1599383475.3,286046998.7,N
1599383495.2,286046998.7,N
1599383515.0,286046999.9,N
1599383515.9,286046999.9,N
1599383535.7,286047001.6,N
1599383555.6,286047001.3,N
1599383575.4,286047002.2,N
1599383595.3,286047002.6,N
1599383615.1,286047000.0,N
1599383616.0,286047000.0,N
1599383635.8,286046999.5,N
1599383655.7,286047001.1,N
1599383675.5,286047001.1,N
1599383695.4,286046998.8,N
1599383715.2,286047000.0,N
1599383735.0,286047000.8,N
1599383735.9,286047000.8,N
1599383755.8,286046999.3,N
1599383775.6,286046997.4,N
1599383795.4,286046997.7,N
1599383815.3,286046997.5,N
1599383835.1,286046997.5,N
1599383855.9,286046996.7,N
1599383875.7,286046998.6,N
1599383895.5,286047001.0,N
1599383915.4,286046998.4,N
1599383935.2,286046996.6,N
1599383955.0,286046997.6,N
1599383955.9,286046997.6,N
1599383975.8,286046999.6,N
1599383995.6,286046999.2,N
1599384015.5,286046998.4,N
1599384035.3,286046999.6,N
1599384055.1,286046999.3,N
1599384075.9,286046998.7,N
1599384095.7,286046997.0,N
1599384115.6,286046999.5,N
1599384135.4,286047001.1,N
1599384155.2,286047000.0,N
1599384175.1,286046999.0,N
1599384176.0,286046999.0,N
1599384195.8,286046999.3,N
1599384215.6,286046996.7,N
1599384235.5,286047002.1,N
1599384255.3,286047001.5,N
1599384275.2,286046998.2,N
1599384295.9,286047000.5,N
1599384315.7,286047001.1,N
1599384335.6,286047000.1,N
1599384355.4,286047000.8,N
1599384375.2,286046996.6,N
1599384395.1,286046998.0,N
1599384396.0,286046998.0,N
1599384415.8,286046996.6,N
1599384435.7,286046999.0,N
1599384455.5,286047000.9,N
1599384475.3,286046998.3,N
1599384495.2,286046996.8,N
1599384515.0,286046996.9,N
1599384515.9,286046996.9,N
1599384535.8,286047000.0,N
1599384555.6,286046996.7,N
1599384575.4,286046996.6,N
1599384595.3,286046997.4,N
1599384615.1,286046997.8,N
1599384635.8,286046999.5,N
1599384655.7,286046997.2,N
1599384675.5,286046996.9,N
1599384695.4,286046996.9,N
1599384715.2,286047001.2,N
1599384735.0,286046999.4,N
1599384736.0,286046999.4,N
1599384755.8,286046999.0,N
1599384775.6,286046997.7,N
1599384795.5,286046996.9,N
1599384815.3,286046996.5,N
1599384835.1,286046997.5,N
1599384855.9,286046999.2,N
1599384875.7,286046998.6,N
1599384895.6,286047000.3,N
1599384915.4,286047000.5,N
1599384935.2,286047002.6,N
1599384955.1,286047002.7,N
1599384956.0,286047002.7,N
1599384975.8,286047000.8,N
1599384995.6,286047001.0,N
1599385015.5,286047000.6,N
1599385035.3,286047001.1,N
1599385055.2,286047000.2,N
1599385075.9,286047000.0,N
1599385095.7,286047002.7,N
1599385115.6,286046999.8,N
1599385135.4,286047000.7,N
1599385155.3,286046998.2,N
1599385175.1,286047001.4,N
1599385176.0,286047001.4,N
1599385195.8,286047003.1,N
1599385215.7,286047003.9,N
1599385235.5,286047002.8,N
1599385255.3,286047001.1,N
1599385275.2,286047000.6,N
1599385295.0,286047001.3,N
1599385295.9,286047001.3,N
1599385315.8,286047002.0,N
1599385335.6,286047002.4,N
1599385355.4,286047005.5,Y
1599385375.3,286047003.8,P
1599385395.1,286047004.2,N
1599385415.9,286047001.6,N
1599385435.7,286047001.9,N
1599385455.5,286047004.5,Y
1599385475.4,286047001.8,P
1599385495.2,286047000.5,N
1599385515.1,286047001.0,N
1599385516.0,286047001.0,N
1599385535.8,286047002.7,Y
1599385555.6,286046999.7,P
1599385575.5,286047000.1,N
1599385595.3,286046999.8,N
1599385615.2,286047003.7,Y
1599385635.9,286047000.5,P
1599385655.7,286047004.3,P
1599385675.6,286047000.1,N
1599385695.4,286047001.8,N
1599385715.2,286047004.2,N
1599385735.1,286047002.2,N
1599385736.0,286047002.2,N
1599385755.8,286047000.4,N
1599385775.7,286047001.5,N
1599385795.5,286047003.4,N
1599385815.3,286047003.9,N
1599385835.2,286047001.9,N
1599385855.0,286047002.4,N
1599385855.9,286047002.4,N
1599385875.7,286046999.3,N
1599385895.6,286046999.8,N
1599385915.4,286047002.4,N
1599385935.3,286047002.5,N
1599385955.1,286046998.2,N
1599385975.8,286047001.1,N
1599385995.7,286047000.9,N
1599386015.5,286047002.8,N
1599386035.4,286047001.5,N
1599386055.2,286046999.8,N
1599386075.0,286047000.4,N
1599386075.9,286047000.4,N
1599386095.8,286046999.8,N
1599386115.6,286047004.0,N
1599386135.4,286047002.9,N
1599386155.3,286047002.2,N
1599386175.1,286047001.0,N
1599386195.9,286046999.3,N
1599386215.7,286046998.4,N
1599386235.5,286047001.1,N
1599386255.4,286046999.8,N
1599386275.2,286047000.1,N
1599386295.1,286047002.5,N
1599386296.0,286047002.5,N
1599386315.8,286047004.2,N
1599386335.6,286047001.0,N
1599386355.5,286047002.4,N
1599386375.3,286047002.3,N
1599386395.1,286047003.9,N
